Flag for Dominican Republic Weather past 2 weeks in Punta Cana, Dominican Republic

Now
81 °F

Passing clouds.


Feels Like: 86 °F
Forecast: 81 / 88 °F
Wind: 16 mph from Southeast

Location: Punta Cana

Current Time: Jul 4, 2015 at 5:40:28 AM

Latest Report: Jul 4, 2015 at 5:00 AM


Visibility: N/A

Pressure: 30.04 "Hg

Humidity: 84%

Dew point: 75 °F

Location of Punta CanaLocation

Historic Weather in Punta Cana — Graph

°F

Punta Cana temperature yesterday

Maximum temperature yesterday: 88 °F (at 11:00 AM)
Minimum temperature yesterday: 75 °F (at 4:00 AM)
Average temperature yesterday: 83 °F

Past Weeks' High & Low Weather Summary

 TemperatureHumidityPressure
High90 °F (Jul 2, 2:00 PM)100% (Jun 23, 3:00 AM)30.23 "Hg (Jun 23, 3:00 AM)
Low72 °F (Jun 23, 3:00 AM)58% (Jun 22, 9:00 AM)29.89 "Hg (Jun 26, 11:00 PM)
Average83 °F78%30.08 "Hg
* Reported Jun 19 4:00 AM — Jul 4 4:00 AM, Punta Cana, Weather by CustomWeather, © 2015

Note: Actual official high and low records may vary slightly from our data, if they occured in-between our weather recording intervals... More about our weather records

Advertising

Punta Cana weather history for previous 24 hours

 ConditionsComfort  
Time TempWeatherWind HumidityBarometerVisibility
4:00 AM
Sat, Jul 4
79 °FPassing clouds.17 mph89%30.04 "HgN/A
3:00 AM79 °FPassing clouds.17 mph84%30.04 "HgN/A
2:00 AM81 °FPassing clouds.17 mph84%30.04 "HgN/A
1:00 AM81 °FPartly cloudy.17 mph84%30.04 "HgN/A
12:00 AM82 °FPassing clouds.17 mph79%30.07 "HgN/A
11:00 PM
Fri, Jul 3
82 °FPassing clouds.17 mph79%30.07 "HgN/A
10:00 PM82 °FPassing clouds.14 mph74%30.04 "HgN/A
9:00 PM82 °FPassing clouds.16 mph79%30.04 "HgN/A
8:00 PM82 °FPartly cloudy.16 mph79%30.04 "HgN/A
7:00 PM82 °FPartly sunny.16 mph79%30.01 "HgN/A
6:00 PM84 °FBroken clouds.17 mph70%30.01 "HgN/A
5:00 PM86 °FBroken clouds.17 mph70%30.01 "HgN/A
4:00 PM88 °FBroken clouds.17 mph66%30.04 "HgN/A
3:00 PM88 °FScattered clouds.16 mph70%30.04 "HgN/A
2:00 PM88 °FPartly sunny.17 mph66%30.07 "HgN/A
1:00 PM88 °FPartly sunny.14 mph66%30.07 "HgN/A
12:00 PM88 °FScattered clouds.14 mph62%30.07 "HgN/A
11:00 AM88 °FScattered clouds.16 mph66%30.09 "HgN/A
10:00 AM84 °FScattered clouds.14 mph74%30.09 "HgN/A
9:00 AM84 °FScattered clouds.9 mph70%30.09 "HgN/A
8:00 AM82 °FScattered clouds.12 mph79%30.07 "HgN/A
7:00 AM81 °FPassing clouds.14 mph79%30.07 "HgN/A
6:00 AM79 °FPassing clouds.16 mph79%30.07 "HgN/A
5:00 AM81 °FPassing clouds.14 mph74%30.04 "HgN/A
Weather by CustomWeather, © 2015

See weather overviewHow to use our weather pages